Location: Ernez
(36.4595°N, 29.8755°E)
Time: 09:18:10
(UTC+00:00)

NOSS 3-4 (C) - Pass Details

Date: 13 November 2025
Orbit: 773 x 1438 km, 63.4° (Epoch: 02 December)

Event Time Altitude Azimuth Distance (km) Brightness Sun altitude
Rises 15:23:38 0° 328° (NNW) 3,825 6.8 -6.6°
Reaches altitude 10° 15:26:07 10° 328° (NNW) 2,957 6.2 -7.0°
Maximum altitude 15:33:18 89° 60° (ENE) 1,238 4.1 -8.4°
Drops below altitude 10° 15:41:39 10° 150° (SSE) 3,406 6.2 -10.0°
Sets 15:44:40 0° 150° (SSE) 4,434 6.8 -10.6°
